Regional Weather Roundup
Issued by NWS

Home | Current Version | Previous Version | Text Only | Print | Product List | Glossary On
Versions: 1 2 3 4 5 6 7 8 9 10 11 12 13 14 15 16 17 18 19 20 21 22 23 24 25 26 27 28 29 30 31 32 33 34 35 36 37 38 39 40 41 42 43 44 45 46 47 48 49 50
000
ASUS46 KLOX 300012
RWRCA

SOUTHERN CALIFORNIA WEATHER ROUNDUP
NATIONAL WEATHER SERVICE OXNARD CALIFORNIA
500 PM PDT FRI AUG 29 2014

NOTE: "FAIR" INDICATES FEW OR NO CLOUDS BELOW 12,000 FEET WITH NO
SIGNIFICANT WEATHER AND/OR OBSTRUCTIONS TO VISIBILITY.

  -  STATIONS PRECEEDED BY AN ASTERISK (*) ARE NOT NWS OR FAA
     STATIONS AND ARE NOT SUBJECT TO NWS AND FAA QUALITY CONTROL.

CAZ041-042-087-300100-
LA AND ORANGE COUNTY COASTAL AREAS


CITY           SKY/WX    TMP DP  RH WIND       PRES   REMARKS
L.A. DOWNTOWN  SUNNY     79  62  56 W8        29.80S
L.A. AIRPORT   MOSUNNY   73  62  68 W14       29.82F
LONG BEACH     SUNNY     83  63  50 NW9       29.80S

CITY           SKY/WX    TMP DP  RH WIND       PRES   REMARKS
AVALON           N/A     75 N/A N/A MISG        N/A
FULLERTON      SUNNY     85  57  38 S8        29.79S
*GETTY CENTER    N/A     81  59  47 S7          N/A
HAWTHORNE      SUNNY     76  63  64 W12       29.81F
*LOS ALAMITOS  SUNNY     82  58  43 S9        29.80F
*REDONDO BEACH   N/A     74  64  69 SW6       29.82S
SANTA ANA      MOSUNNY   80  63  55 VRB7      29.81S
STA MONICA APT SUNNY     74  60  61 SW8       29.82S
TORRANCE       SUNNY     79  66  65 NW20      29.82
*UCLA            N/A     77  57  50 SW7       29.79S

$$

CAZ547-548-048-300100-
LA COUNTY VALLEYS AND INLAND EMPIRE


CITY           SKY/WX    TMP DP  RH WIND       PRES   REMARKS
BURBANK        SUNNY     88  56  33 S9        29.80F
VAN NUYS       SUNNY     93  42  17 SE9       29.80S

CITY           SKY/WX    TMP DP  RH WIND       PRES   REMARKS
CORONA AIRPORT CLEAR     89  62  40 W15G21    29.79R
*CHATSWORTH      N/A     91  60  35 NW5       29.75S HX  91
CHINO          MOSUNNY   93  53  25 W14       29.80S HX  90
MARCH AFB      SUNNY     96  46  17 NW13      29.83S HX  92
ONTARIO        MOSUNNY   95  47  19 W14       29.80S HX  91
*PASADENA        N/A     91  63  38 E2          N/A  HX  92
POMONA         SUNNY     91  46  21 SW8       29.84F
RIVERSIDE      SUNNY     95  48  20 W10G20    29.79S HX  91
SAN BERNARDINO SUNNY     99  37  12 W13       29.80F HX  93
*WHITEMAN AP   SUNNY     91  54  27 SE9       29.85S
*WOODLAND HILL   N/A     97  43  15 N3          N/A  HX  92

$$

CAZ054-055-300100-
LA AND SAN BERNARDINO COUNTY MOUNTAINS


CITY           SKY/WX    TMP DP  RH WIND       PRES   REMARKS
*ACTON           N/A     99  30   9 SW12        N/A  HX  93
*BIG BEAR AIRP CLEAR     79  34  19 W10       30.21S
*BIG PINES       N/A     80  31  17 S2          N/A
MT WILSON NWS    N/A     84  46  26 SW7         N/A
SANDBERG       SUNNY     87  40  19 N16       30.06S
*WARM SPRINGS    N/A     90  41  18 S2          N/A

$$

CAZ028-029-059-060-099-300100-
ANTELOPE VALLEY AND SURROUNDING AREAS


CITY           SKY/WX    TMP DP  RH WIND       PRES   REMARKS
LANCASTER      SUNNY     98  33  10 W18       29.86R HX  92
PALMDALE       SUNNY     98  30   9 SW18      29.87S HX  92

CITY           SKY/WX    TMP DP  RH WIND       PRES   REMARKS
29 PALMS       SUNNY    105  31   7 VRB7      29.85F HX  98
BARSTOW/DAGGET SUNNY    105  23   5 NW5       29.78F HX  97
BISHOP         SUNNY     98  21   6 S15       29.90S HX  91
CHINA LAKE     SUNNY    104  20   5 S10G16    29.80F HX  96
EDWARDS AFB    PTSUNNY  102  20   5 SW8       29.82F HX  94
MOJAVE         FAIR      95  41  15 W24       29.88S HX  91
NEEDLES        SUNNY    110  29   6 SE9       29.70F HX 102
VICTORVILLE    SUNNY     99  30   9 S13       29.88S HX  92

$$

CAZ039-040-300100-
VENTURA AND SANTA BARBARA COUNTY COAST


CITY           SKY/WX    TMP DP  RH WIND       PRES   REMARKS
CAMARILLO      SUNNY     81  57  43 SW8       29.82F
NWS OXNARD       N/A     75  60  58 CALM      29.82S
OXNARD AIRPORT SUNNY     72  62  71 W16       29.82F
*POINT MUGU    SUNNY     77  63  61 W14       29.83F
SBA APT/GOLETA SUNNY     75  61  61 S5        29.81F
*SANTA BARBARA   N/A     82  58  43 CALM      29.89S
*VENTURA         N/A     77  59  55 SW9       29.87S

$$

CAZ044-045-300100-
VENTURA COUNTY VALLEYS


CITY           SKY/WX    TMP DP  RH WIND       PRES   REMARKS
*SIMI VALLEY     N/A     83  59  43 SW3       29.77S
*OJAI            N/A     94  56  27 CALM      29.74S HX  92
*FILLMORE        N/A     89  52  28 SW1       29.72S

$$

CAZ053-300100-
VENTURA COUNTY MOUNTAINS


CITY           SKY/WX    TMP DP  RH WIND       PRES   REMARKS
*LOCKWOOD VLY    N/A    N/A N/A N/A MISG        N/A
*ROSE VALLEY     N/A     88  52  29 MISG        N/A

$$

CAZ034-035-036-300100-
CENTRAL COAST AND SANTA YNEZ VALLEY


CITY           SKY/WX    TMP DP  RH WIND       PRES   REMARKS
SAN LUIS OBISP SUNNY     70  59  68 NW17      29.86S
SANTA MARIA    MOSUNNY   70  59  68 NW13      29.89S

CITY           SKY/WX    TMP DP  RH WIND       PRES   REMARKS
*CAL POLY SLO    N/A     73  63  68 W9          N/A
*LOMPOC        PTSUNNY   68  57  68 W15       29.90S
*PISMO BEACH     N/A     69  63  81 W3        29.87S
*SANTA YNEZ    FAIR      81  55  41 W14       29.85S

$$

CAZ037-038-051-300100-
SAN LUIS OBISPO COUNTY INTERIOR AND CUYAMA VALLEY


CITY           SKY/WX    TMP DP  RH WIND       PRES   REMARKS
*CUYAMA          N/A     92  41  16 NE10      29.77S
PASO ROBLES    SUNNY     98  44  15 S13       29.82F HX  94

$$

CAZ032-033-061-300100-
SOUTHERN DESERTS


CITY           SKY/WX    TMP DP  RH WIND       PRES   REMARKS
BLYTHE         SUNNY    109  32   7 SE12      29.67F HX 101
IMPERIAL       SUNNY    111  35   7 E6        29.62F HX 104
PALM SPRINGS   SUNNY    112  32   6 NW23      29.68F HX 104
THERMAL        SUNNY    111  36   8 SE3       29.61F HX 104

$$

ELSEWHERE ACROSS THE WESTERN UNITED STATES AND MEXICO


CITY           SKY/WX    TMP DP  RH WIND       PRES   REMARKS
DENVER, CO     CLOUDY    68  46  45 W10       30.12R
GRAND CANYON,  SUNNY     81  34  18 E7        30.19F
HONOLULU, HI   PTSUNNY   90  63  40 NE12G18   29.88F HX  90
KAHULUI, MAUI  MOSUNNY   88  70  55 NE17      29.90S HX  92
LAKE TAHOE, CA NOT AVBL
LAS VEGAS, NV  MOSUNNY  104  30   7 SE12      29.76F HX  97
MAMMOTH LAKES, FAIR      82  19   9 W18       30.19S
MEXICO CITY, M PTSUNNY   77  46  33 N8        30.13S
PHOENIX, AZ    SUNNY    107  38   9 SW6       29.71F HX 101
PORTLAND, OR   PTSUNNY   75  55  49 N6        29.96S
RENO, NV       PTSUNNY   88  33  14 W16G25    30.00S
SALT LAKE CITY PTSUNNY   88  36  15 S16       29.97F
SAN DIEGO, CA  MOSUNNY   76  63  64 W13       29.84S
SAN FRANCISCO, CLOUDY    70  60  70 W18       29.90S
SAN JOSE, CA   PTSUNNY   73  58  59 W12       29.89F
SEATTLE, WA    PTSUNNY   70  54  56 S12       29.97F
TIJUANA, MEX   SUNNY     77  59  53 W14       29.85F

$$

STATION/POSITION TIME  TEMP    WIND        PRES    VSBY  WAVE
                       AIR SEA DIR/SP/G                  HT/PER
                 (UTC) (F)     (DEG/KT/KT) (MB)    (MI)  (FT/S)
POINT ARGUELLO B NOT AVBL
WEST SANTA BARBA 0000   62 62  310/ 21/ 25 1010.1F         5/ 6
POINT CONCEPTION NOT AVBL
EAST SANTA BARBA 0000   64     260/ 16       N/A
SANTA MONICA BAY 0000   70 73  270/  8/ 12 1009.7F         4/10


USA.gov is the U.S. government's official web portal to all federal, state and local government web resources and services.